Regional Weather Roundup
Issued by NWS

Home | Current Version | Previous Version | Graphics & Text | Print | Product List | Glossary On
Versions: 1 2 3 4 5 6 7 8 9 10 11 12 13 14 15 16 17 18 19 20 21 22 23 24 25 26 27 28 29 30 31 32 33 34 35 36 37 38 39 40 41 42 43 44 45 46 47 48 49 50
000
ASUS45 KCYS 020110
RWRWY

WYOMING REGIONAL WEATHER ROUNDUP
NATIONAL WEATHER SERVICE CHEYENNE WY
700 PM MDT SUN MAY 01 2016

NOTE:  "FAIR" INDICATES FEW OR NO CLOUDS BELOW 12,000 FEET
WITH NO SIGNIFICANT WEATHER AND/OR OBSTRUCTIONS TO VISIBILITY.

WYZ001-020200-
YELLOWSTONE NATIONAL PARK

CITY           SKY/WX    TMP DP  RH WIND       PRES   REMARKS
LK YELLOWSTONE   N/A     45  12  26 CALM      30.25S
W YELLOWSTONE  NOT AVBL

$$
WYZ002>013-054>058-071-098>099-020200-
NORTHERN WYOMING

CITY           SKY/WX    TMP DP  RH WIND       PRES   REMARKS
JACKSON        SUNNY     54  18  24 NE18G25   30.16S
CODY           FAIR      54  25  32 E8        30.19F
GREYBULL       FAIR      60  23  24 SW8       30.18F
WORLAND        FAIR      56  28  34 SW8       30.19F
SHERIDAN       FAIR      58  25  28 E3        30.20F
BUFFALO          N/A    N/A N/A N/A MISG      30.23S
GILLETTE       FAIR      53  28  38 N7        30.22S
HULETT         FAIR      54  28  37 NE6       30.23F
NEWCASTLE      FAIR      54  25  32 N10       30.20S

$$
WYZ014>020-022>026-101>103-020200-
CENTRAL WYOMING

CITY           SKY/WX    TMP DP  RH WIND       PRES   REMARKS
BIG PINEY      FAIR      48  18  30 SW22      30.20R
PINEDALE       FAIR      46  10  23 NE13      30.20R
DUBOIS         NOT AVBL
LANDER         PTSUNNY   48  26  42 W6        30.23F
RIVERTON       FAIR      50  25  37 VRB3      30.25F
CASPER         FAIR      48  24  39 E9        30.23S
DOUGLAS        FAIR      48  30  49 W7        30.24F

$$
WYZ021-027>030-104>119-020200-
SOUTHERN WYOMING

CITY           SKY/WX    TMP DP  RH WIND       PRES   REMARKS
EVANSTON       FAIR      42  21  43 E18G29    30.15S
KEMMERER         N/A     43  21  42 E18G24    30.20S
FORT BRIDGER   PTCLDY    43  25  49 E14G23    30.22S
ROCK SPRINGS   FAIR      44  23  43 NE24G35   30.18S
DIXON          FAIR      52  25  35 NE12G17   30.12R
RAWLINS        FAIR      39  24  55 E13       30.22S WCI  31
SARATOGA       FAIR      43  23  45 NE6G21    30.18S
LARAMIE        PTSUNNY   33  21  61 E6        30.24S WCI  28
CHEYENNE       FAIR      39  23  52 E3        30.26S
TORRINGTON     FAIR      52  24  33 N3        30.22F
PINE BLUFFS    FAIR      41  27  56 NW3       30.27S

$$



USA.gov is the U.S. government's official web portal to all federal, state and local government web resources and services.